• Join FlightAware (Why Join?)
  • Login
  • US Flag 
07:45AM EST


 

Airport Tracker/Info


-or-


 

Live Flight TrackerFlight Track Log ✈ UAL4696 ✈ 28-Apr-2013 ✈ KCLE - KMCI

Flight Track Log - Related Links

Times and Time Zones

All times are in EDT time to prevent confusion due to time zone crossing. See the UAL4696 flight status page for this flight to view local times or setup timezone preferences in your user account.

Time Position Orientation Groundspeed Altitude Reporting Facility
EDT Latitude Longitude Course Direction KTS MPH feet Rate Location/Type
01:37PM 41.4172 -81.8375 359° North 169 194 1,500  Level Cleveland Center
01:38PM 41.4653 -81.8383 359° North 223 257 3,000 1,680 Climbing Cleveland Center
01:39PM 41.5147 -81.8975 318° Northwest 234 269 4,900 1,980 Climbing Cleveland Center
01:40PM 41.4761 -81.9772 237° Southwest 204 235 7,200 2,160 Climbing Cleveland Center
01:41PM 41.4336 -82.0567 235° Southwest 231 266 9,300 1,800 Climbing Cleveland Center
01:42PM 41.3906 -82.1442 237° Southwest 272 313 10,900 1,200 Climbing Cleveland Center
01:43PM 41.3456 -82.2425 239° Southwest 308 354 11,800 1,140 Climbing Cleveland Center
01:44PM 41.2939 -82.3464 237° Southwest 338 389 13,200 1,380 Climbing Cleveland Center
01:45PM 41.2422 -82.4500 236° Southwest 338 389 14,600 1,440 Climbing Cleveland Center
01:46PM 41.1925 -82.5533 237° Southwest 338 389 16,100 1,320 Climbing Cleveland Center
01:47PM 41.1472 -82.6458 237° Southwest 338 389 17,300 1,320 Climbing Cleveland Center
01:48PM 41.1014 -82.7544 241° Southwest 343 395 18,800 1,500 Climbing Cleveland Center
01:49PM 41.0842 -82.8778 260° West 334 384 20,300 1,560 Climbing Cleveland Center
01:50PM 41.0650 -83.0039 259° West 344 396 21,900 1,500 Climbing Cleveland Center
01:51PM 41.0311 -83.1211 249° West 350 403 23,400 1,500 Climbing Cleveland Center
01:52PM 40.9953 -83.2353 247° West 350 403 24,900 1,500 Climbing Cleveland Center
01:54PM 40.9308 -83.4061 244° Southwest 340 391 27,200 1,380 Climbing Indianapolis Center
01:55PM 40.8922 -83.5178 245° Southwest 337 388 28,500 1,140 Climbing Indianapolis Center
01:56PM 40.8511 -83.6286 244° Southwest 335 386 29,600 1,080 Climbing Indianapolis Center
01:57PM 40.8031 -83.7614 244° Southwest 342 394 30,800 1,080 Climbing Indianapolis Center
01:58PM 40.7614 -83.8781 245° Southwest 348 400 31,900 1,020 Climbing Indianapolis Center
01:59PM 40.7175 -83.9964 244° Southwest 357 411 33,000 960 Climbing Indianapolis Center
02:00PM 40.6756 -84.1167 245° Southwest 359 413 33,900 480 Climbing Indianapolis Center
02:01PM 40.6633 -84.2508 263° West 372 428 34,000  Climbing Indianapolis Center
02:02PM 40.6539 -84.3950 265° West 392 451 34,000  Level Indianapolis Center
02:03PM 40.6464 -84.5006 265° West 403 464 34,000  Level Chicago Center
02:04PM 40.6350 -84.6606 265° West 414 476 34,000  Level Chicago Center
02:05PM 40.6231 -84.8356 265° West 411 473 34,000  Level Chicago Center
02:05PM 40.6206 -84.8750 265° West 412 474 34,000  Level Indianapolis Center
02:06PM 40.6103 -85.0144 264° West 417 480 34,000  Level Indianapolis Center
02:07PM 40.6022 -85.1417 265° West 418 481 34,000  Level Chicago Center
02:08PM 40.5897 -85.2944 264° West 418 481 34,000  Level Chicago Center
02:09PM 40.5786 -85.4497 265° West 422 486 34,000  Level Chicago Center
02:10PM 40.5669 -85.6050 264° West 425 489 34,000  Level Chicago Center
02:11PM 40.5533 -85.7872 264° West 427 491 34,000  Level Chicago Center
02:12PM 40.5408 -85.9439 264° West 430 495 34,000 240 Level Chicago Center
02:13PM 40.5281 -86.1003 264° West 430 495 34,600 660 Climbing Chicago Center
02:14PM 40.5164 -86.2525 264° West 422 486 35,400 660 Climbing Chicago Center
02:15PM 40.5033 -86.4028 264° West 416 479 36,000 240 Climbing Chicago Center
02:16PM 40.4894 -86.5594 263° West 426 490 36,000  Level Chicago Center
02:17PM 40.4756 -86.7392 264° West 427 491 36,000  Level Chicago Center
02:18PM 40.4619 -86.8956 264° West 431 496 36,000  Level Chicago Center
02:20PM 40.4472 -87.0567 263° West 438 504 36,000  Level Chicago Center
02:21PM 40.4339 -87.2131 264° West 435 501 36,000  Level Chicago Center
02:22PM 40.4189 -87.3717 263° West 435 501 36,000  Level Chicago Center
02:23PM 40.4050 -87.5308 264° West 435 501 36,000  Level Chicago Center
02:24PM 40.3894 -87.6894 263° West 439 505 36,000  Level Chicago Center
02:25PM 40.3722 -87.8756 263° West 431 496 36,000  Level Chicago Center
02:26PM 40.3567 -88.0306 263° West 432 497 36,000  Level Chicago Center
02:27PM 40.3417 -88.1847 263° West 428 493 36,000  Level Chicago Center
02:28PM 40.3264 -88.3386 263° West 427 491 36,000  Level Chicago Center
02:29PM 40.3100 -88.4911 262° West 425 489 36,000  Level Chicago Center
02:30PM 40.2925 -88.6689 263° West 426 490 36,000  Level Chicago Center
02:31PM 40.2761 -88.8225 262° West 425 489 36,000  Level Chicago Center
02:32PM 40.2606 -88.9767 263° West 427 491 36,000  Level Chicago Center
02:33PM 40.2442 -89.1297 262° West 426 490 36,000  Level Chicago Center
02:34PM 40.2258 -89.2864 261° West 434 499 36,000  Level Chicago Center
02:35PM 40.2078 -89.4394 261° West 428 493 36,000  Level Chicago Center
02:36PM 40.1914 -89.5906 262° West 421 484 36,000  Level Chicago Center
02:37PM 40.1728 -89.7694 262° West 411 473 36,000  Level Chicago Center
02:38PM 40.1553 -89.9200 261° West 416 479 36,000  Level Chicago Center
02:39PM 40.1383 -90.0683 262° West 413 475 36,000  Level Chicago Center
02:40PM 40.1208 -90.2197 261° West 419 482 36,000  Level Chicago Center
02:41PM 40.1019 -90.3725 261° West 422 486 36,000  Level Chicago Center
02:42PM 40.0908 -90.4667 261° West 426 490 36,000  Level Kansas City Center
02:43PM 40.0689 -90.6519 261° West 428 493 36,000  Level Kansas City Center
02:44PM 40.0497 -90.8047 261° West 429 494 36,000  Level Kansas City Center
02:45PM 40.0308 -90.9639 261° West 432 497 36,000  Level Kansas City Center
02:46PM 40.0106 -91.1186 260° West 435 501 36,000  Level Kansas City Center
02:47PM 39.9914 -91.2733 261° West 436 502 36,000  Level Kansas City Center
02:48PM 39.9703 -91.4297 260° West 439 505 36,000  Level Kansas City Center
02:49PM 39.9506 -91.5803 260° West 430 495 36,000  Level Kansas City Center
02:50PM 39.9281 -91.7597 261° West 423 487 36,000  Level Kansas City Center
02:51PM 39.9086 -91.9100 260° West 423 487 36,000  Level Kansas City Center
02:52PM 39.8878 -92.0617 260° West 424 488 36,000  Level Kansas City Center
02:53PM 39.8683 -92.2119 260° West 424 488 36,000  Level Kansas City Center
02:54PM 39.8483 -92.3644 260° West 426 490 36,000  Level Kansas City Center
02:55PM 39.8267 -92.5167 260° West 428 493 36,000  Level Kansas City Center
02:56PM 39.8014 -92.6969 260° West 425 489 36,000 -780 Level Kansas City Center
02:57PM 39.7803 -92.8506 260° West 428 493 34,400 -2,280 Descending Kansas City Center
02:58PM 39.7586 -93.0006 259° West 426 490 31,300 -3,240 Descending Kansas City Center
02:59PM 39.7367 -93.1528 259° West 429 494 27,800 -3,480 Descending Kansas City Center
03:00PM 39.7150 -93.3014 259° West 424 488 24,200 -3,300 Descending Kansas City Center
03:02PM 39.6892 -93.4733 259° West 412 474 21,100 -3,420 Descending Kansas City Center
03:03PM 39.6683 -93.6139 259° West 403 464 17,200 -3,420 Descending Kansas City Center
03:04PM 39.6492 -93.7519 260° West 391 450 14,100 -2,640 Descending Kansas City Center
03:05PM 39.6297 -93.8739 258° West 361 415 11,800 -2,040 Descending Kansas City Center
03:06PM 39.5753 -93.9844 237° Southwest 319 367 10,000 -1,500 Descending Kansas City Center
03:07PM 39.5339 -94.0672 237° Southwest 284 327 8,800 -1,320 Descending Kansas City Center
03:08PM 39.5081 -94.1678 252° West 265 305 7,300 -1,080 Descending Kansas City Center
03:09PM 39.4914 -94.2514 256° West 253 291 6,600 -660 Descending Kansas City Center
03:10PM 39.4717 -94.3472 255° West 247 284 6,000 -300 Descending Kansas City Center
03:11PM 39.4561 -94.4303 256° West 248 285 6,000 -300 Level Kansas City Center
03:12PM 39.4361 -94.5272 255° West 249 287 5,500 -780 Descending Kansas City Center
03:13PM 39.4194 -94.6081 255° West 245 282 4,400 -1,260 Descending Kansas City Center
03:14PM 39.3828 -94.6811 237° Southwest 222 255 3,000 -1,260 Descending Kansas City Center
03:15PM 39.3456 -94.6900 190° South 136 157 1,900 -960 Descending Kansas City Center
03:16PM 39.3078 -94.7017 193° South 125 144 1,100 -780 Descending Kansas City Center
03:18PM 39.2976 -94.7139 194° South  Level Estimated